#datetime,building,power
2022-07-20T00:00:00,campus,2256.00
2022-07-20T00:01:00,campus,2256.00
2022-07-20T00:02:00,campus,2250.00
2022-07-20T00:03:00,campus,2244.00
2022-07-20T00:04:00,campus,2244.00
2022-07-20T00:05:00,campus,2238.00
2022-07-20T00:06:00,campus,2232.00
2022-07-20T00:07:00,campus,2232.00
2022-07-20T00:08:00,campus,2226.00
2022-07-20T00:09:00,campus,2220.00
2022-07-20T00:10:00,campus,2214.00
2022-07-20T00:11:00,campus,2208.00
2022-07-20T00:12:00,campus,2208.00
2022-07-20T00:13:00,campus,2202.00
2022-07-20T00:14:00,campus,2196.00
2022-07-20T00:15:00,campus,2196.00
2022-07-20T00:16:00,campus,2184.00
2022-07-20T00:17:00,campus,2178.00
2022-07-20T00:18:00,campus,2172.00
2022-07-20T00:19:00,campus,2166.00
2022-07-20T00:20:00,campus,2160.00
2022-07-20T00:21:00,campus,2154.00
2022-07-20T00:22:00,campus,2148.00
2022-07-20T00:23:00,campus,2142.00
2022-07-20T00:24:00,campus,2136.00
2022-07-20T00:25:00,campus,2124.00
2022-07-20T00:26:00,campus,2118.00
2022-07-20T00:27:00,campus,2106.00
2022-07-20T00:28:00,campus,2094.00
2022-07-20T00:29:00,campus,2088.00
2022-07-20T00:30:00,campus,2070.00
2022-07-20T00:31:00,campus,2064.00
2022-07-20T00:32:00,campus,2058.00
2022-07-20T00:33:00,campus,2052.00
2022-07-20T00:34:00,campus,2046.00
2022-07-20T00:35:00,campus,2046.00
2022-07-20T00:36:00,campus,2040.00
2022-07-20T00:37:00,campus,2040.00
2022-07-20T00:38:00,campus,2034.00
2022-07-20T00:39:00,campus,2028.00
2022-07-20T00:40:00,campus,2016.00
2022-07-20T00:41:00,campus,2010.00
2022-07-20T00:42:00,campus,2004.00
2022-07-20T00:43:00,campus,1998.00
2022-07-20T00:44:00,campus,1986.00
2022-07-20T00:45:00,campus,1980.00
2022-07-20T00:46:00,campus,1968.00
2022-07-20T00:47:00,campus,1962.00
2022-07-20T00:48:00,campus,1956.00
2022-07-20T00:49:00,campus,1950.00
2022-07-20T00:50:00,campus,1938.00
2022-07-20T00:51:00,campus,1932.00
2022-07-20T00:52:00,campus,1920.00
2022-07-20T00:53:00,campus,1914.00
2022-07-20T00:54:00,campus,1902.00
2022-07-20T00:55:00,campus,1896.00
2022-07-20T00:56:00,campus,1890.00
2022-07-20T00:57:00,campus,1878.00
2022-07-20T00:58:00,campus,1872.00
2022-07-20T00:59:00,campus,1872.00
2022-07-20T01:00:00,campus,1866.00
2022-07-20T01:01:00,campus,1860.00
2022-07-20T01:02:00,campus,1860.00
2022-07-20T01:03:00,campus,1854.00
2022-07-20T01:04:00,campus,1854.00
2022-07-20T01:05:00,campus,1848.00
2022-07-20T01:06:00,campus,1848.00
2022-07-20T01:07:00,campus,1842.00
2022-07-20T01:08:00,campus,1842.00
2022-07-20T01:09:00,campus,1842.00
2022-07-20T01:10:00,campus,1842.00
2022-07-20T01:11:00,campus,1848.00
2022-07-20T01:12:00,campus,1842.00
2022-07-20T01:13:00,campus,1842.00
2022-07-20T01:14:00,campus,1842.00
2022-07-20T01:15:00,campus,1848.00
2022-07-20T01:16:00,campus,1848.00
2022-07-20T01:17:00,campus,1842.00
2022-07-20T01:18:00,campus,1848.00
2022-07-20T01:19:00,campus,1848.00
2022-07-20T01:20:00,campus,1848.00
2022-07-20T01:21:00,campus,1848.00
2022-07-20T01:22:00,campus,1848.00
2022-07-20T01:23:00,campus,1848.00
2022-07-20T01:24:00,campus,1848.00
2022-07-20T01:25:00,campus,1848.00
2022-07-20T01:26:00,campus,1854.00
2022-07-20T01:27:00,campus,1854.00
2022-07-20T01:28:00,campus,1860.00
2022-07-20T01:29:00,campus,1860.00
2022-07-20T01:30:00,campus,1860.00
2022-07-20T01:31:00,campus,1860.00
2022-07-20T01:32:00,campus,1860.00
2022-07-20T01:33:00,campus,1860.00
2022-07-20T01:34:00,campus,1860.00
2022-07-20T01:35:00,campus,1860.00
2022-07-20T01:36:00,campus,1866.00
2022-07-20T01:37:00,campus,1866.00
2022-07-20T01:38:00,campus,1866.00
2022-07-20T01:39:00,campus,1866.00
2022-07-20T01:40:00,campus,1860.00
2022-07-20T01:41:00,campus,1860.00
2022-07-20T01:42:00,campus,1860.00
2022-07-20T01:43:00,campus,1860.00
2022-07-20T01:44:00,campus,1860.00
2022-07-20T01:45:00,campus,1860.00
2022-07-20T01:46:00,campus,1860.00
2022-07-20T01:47:00,campus,1860.00
2022-07-20T01:48:00,campus,1860.00
2022-07-20T01:49:00,campus,1860.00
2022-07-20T01:50:00,campus,1860.00
2022-07-20T01:51:00,campus,1866.00
2022-07-20T01:52:00,campus,1866.00
2022-07-20T01:53:00,campus,1872.00
2022-07-20T01:54:00,campus,1872.00
2022-07-20T01:55:00,campus,1872.00
2022-07-20T01:56:00,campus,1878.00
2022-07-20T01:57:00,campus,1884.00
2022-07-20T01:58:00,campus,1884.00
2022-07-20T01:59:00,campus,1884.00
2022-07-20T02:00:00,campus,1890.00
2022-07-20T02:01:00,campus,1890.00
2022-07-20T02:02:00,campus,1896.00
2022-07-20T02:03:00,campus,1896.00
2022-07-20T02:04:00,campus,1896.00
2022-07-20T02:05:00,campus,1896.00
2022-07-20T02:06:00,campus,1896.00
2022-07-20T02:07:00,campus,1902.00
2022-07-20T02:08:00,campus,1908.00
2022-07-20T02:09:00,campus,1908.00
2022-07-20T02:10:00,campus,1914.00
2022-07-20T02:11:00,campus,1920.00
2022-07-20T02:12:00,campus,1926.00
2022-07-20T02:13:00,campus,1926.00
2022-07-20T02:14:00,campus,1932.00
2022-07-20T02:15:00,campus,1932.00
2022-07-20T02:16:00,campus,1938.00
2022-07-20T02:17:00,campus,1944.00
2022-07-20T02:18:00,campus,1944.00
2022-07-20T02:19:00,campus,1944.00
2022-07-20T02:20:00,campus,1950.00
2022-07-20T02:21:00,campus,1956.00
2022-07-20T02:22:00,campus,1956.00
2022-07-20T02:23:00,campus,1956.00
2022-07-20T02:24:00,campus,1956.00
2022-07-20T02:25:00,campus,1956.00
2022-07-20T02:26:00,campus,1950.00
2022-07-20T02:27:00,campus,1950.00
2022-07-20T02:28:00,campus,1950.00
2022-07-20T02:29:00,campus,1950.00
2022-07-20T02:30:00,campus,1950.00
2022-07-20T02:31:00,campus,1950.00
2022-07-20T02:32:00,campus,1950.00
2022-07-20T02:33:00,campus,1950.00
2022-07-20T02:34:00,campus,1944.00
2022-07-20T02:35:00,campus,1944.00
2022-07-20T02:36:00,campus,1944.00
2022-07-20T02:37:00,campus,1938.00
2022-07-20T02:38:00,campus,1944.00
2022-07-20T02:39:00,campus,1938.00
2022-07-20T02:40:00,campus,1938.00
2022-07-20T02:41:00,campus,1938.00
2022-07-20T02:42:00,campus,1938.00
2022-07-20T02:43:00,campus,1938.00
2022-07-20T02:44:00,campus,1938.00
2022-07-20T02:45:00,campus,1938.00
2022-07-20T02:46:00,campus,1938.00
2022-07-20T02:47:00,campus,1938.00
2022-07-20T02:48:00,campus,1938.00
2022-07-20T02:49:00,campus,1938.00
2022-07-20T02:50:00,campus,1938.00
2022-07-20T02:51:00,campus,1938.00
2022-07-20T02:52:00,campus,1944.00
2022-07-20T02:53:00,campus,1944.00
2022-07-20T02:54:00,campus,1944.00
2022-07-20T02:55:00,campus,1950.00
2022-07-20T02:56:00,campus,1950.00
2022-07-20T02:57:00,campus,1956.00
2022-07-20T02:58:00,campus,1956.00
2022-07-20T02:59:00,campus,1956.00
2022-07-20T03:00:00,campus,1956.00
2022-07-20T03:01:00,campus,1956.00
2022-07-20T03:02:00,campus,1962.00
2022-07-20T03:03:00,campus,1962.00
2022-07-20T03:04:00,campus,1962.00
2022-07-20T03:05:00,campus,1962.00
2022-07-20T03:06:00,campus,1962.00
2022-07-20T03:07:00,campus,1968.00
2022-07-20T03:08:00,campus,1962.00
2022-07-20T03:09:00,campus,1968.00
2022-07-20T03:10:00,campus,1962.00
2022-07-20T03:11:00,campus,1962.00
2022-07-20T03:12:00,campus,1962.00
2022-07-20T03:13:00,campus,1956.00
2022-07-20T03:14:00,campus,1950.00
2022-07-20T03:15:00,campus,1944.00
2022-07-20T03:16:00,campus,1944.00
2022-07-20T03:17:00,campus,1938.00
2022-07-20T03:18:00,campus,1938.00
2022-07-20T03:19:00,campus,1932.00
2022-07-20T03:20:00,campus,1932.00
2022-07-20T03:21:00,campus,1926.00
2022-07-20T03:22:00,campus,1920.00
2022-07-20T03:23:00,campus,1920.00
2022-07-20T03:24:00,campus,1914.00
2022-07-20T03:25:00,campus,1914.00
2022-07-20T03:26:00,campus,1908.00
2022-07-20T03:27:00,campus,1908.00
2022-07-20T03:28:00,campus,1902.00
2022-07-20T03:29:00,campus,1896.00
2022-07-20T03:30:00,campus,1896.00
2022-07-20T03:31:00,campus,1890.00
2022-07-20T03:32:00,campus,1884.00
2022-07-20T03:33:00,campus,1878.00
2022-07-20T03:34:00,campus,1872.00
2022-07-20T03:35:00,campus,1872.00
2022-07-20T03:36:00,campus,1866.00
2022-07-20T03:37:00,campus,1860.00
2022-07-20T03:38:00,campus,1854.00
2022-07-20T03:39:00,campus,1854.00
2022-07-20T03:40:00,campus,1848.00
2022-07-20T03:41:00,campus,1848.00
2022-07-20T03:42:00,campus,1848.00
2022-07-20T03:43:00,campus,1848.00
2022-07-20T03:44:00,campus,1848.00
2022-07-20T03:45:00,campus,1848.00
2022-07-20T03:46:00,campus,1848.00
2022-07-20T03:47:00,campus,1842.00
2022-07-20T03:48:00,campus,1842.00
2022-07-20T03:49:00,campus,1842.00
2022-07-20T03:50:00,campus,1836.00
2022-07-20T03:51:00,campus,1836.00
2022-07-20T03:52:00,campus,1836.00
2022-07-20T03:53:00,campus,1836.00
2022-07-20T03:54:00,campus,1830.00
2022-07-20T03:55:00,campus,1836.00
2022-07-20T03:56:00,campus,1836.00
2022-07-20T03:57:00,campus,1836.00
2022-07-20T03:58:00,campus,1842.00
2022-07-20T03:59:00,campus,1842.00
2022-07-20T04:00:00,campus,1848.00
2022-07-20T04:01:00,campus,1854.00
2022-07-20T04:02:00,campus,1854.00
2022-07-20T04:03:00,campus,1860.00
2022-07-20T04:04:00,campus,1866.00
2022-07-20T04:05:00,campus,1872.00
2022-07-20T04:06:00,campus,1878.00
2022-07-20T04:07:00,campus,1878.00
2022-07-20T04:08:00,campus,1884.00
2022-07-20T04:09:00,campus,1884.00
2022-07-20T04:10:00,campus,1890.00
2022-07-20T04:11:00,campus,1890.00
2022-07-20T04:12:00,campus,1890.00
2022-07-20T04:13:00,campus,1896.00
2022-07-20T04:14:00,campus,1896.00
2022-07-20T04:15:00,campus,1896.00
2022-07-20T04:16:00,campus,1896.00
2022-07-20T04:17:00,campus,1902.00
2022-07-20T04:18:00,campus,1908.00
2022-07-20T04:19:00,campus,1908.00
2022-07-20T04:20:00,campus,1914.00
2022-07-20T04:21:00,campus,1914.00
2022-07-20T04:22:00,campus,1914.00
2022-07-20T04:23:00,campus,1920.00
2022-07-20T04:24:00,campus,1926.00
2022-07-20T04:25:00,campus,1920.00
2022-07-20T04:26:00,campus,1920.00
2022-07-20T04:27:00,campus,1920.00
2022-07-20T04:28:00,campus,1920.00
2022-07-20T04:29:00,campus,1914.00
2022-07-20T04:30:00,campus,1914.00
2022-07-20T04:31:00,campus,1908.00
2022-07-20T04:32:00,campus,1908.00
2022-07-20T04:33:00,campus,1908.00
2022-07-20T04:34:00,campus,1908.00
2022-07-20T04:35:00,campus,1908.00
2022-07-20T04:36:00,campus,1908.00
2022-07-20T04:37:00,campus,1908.00
2022-07-20T04:38:00,campus,1908.00
2022-07-20T04:39:00,campus,1908.00
2022-07-20T04:40:00,campus,1914.00
2022-07-20T04:41:00,campus,1920.00
2022-07-20T04:42:00,campus,1926.00
2022-07-20T04:43:00,campus,1932.00
2022-07-20T04:44:00,campus,1938.00
2022-07-20T04:45:00,campus,1938.00
2022-07-20T04:46:00,campus,1944.00
2022-07-20T04:47:00,campus,1950.00
2022-07-20T04:48:00,campus,1956.00
2022-07-20T04:49:00,campus,1962.00
2022-07-20T04:50:00,campus,1968.00
2022-07-20T04:51:00,campus,1974.00
2022-07-20T04:52:00,campus,1980.00
2022-07-20T04:53:00,campus,1986.00
2022-07-20T04:54:00,campus,1992.00
2022-07-20T04:55:00,campus,1998.00
2022-07-20T04:56:00,campus,2004.00
2022-07-20T04:57:00,campus,2010.00
2022-07-20T04:58:00,campus,2016.00
2022-07-20T04:59:00,campus,2022.00
2022-07-20T05:00:00,campus,2022.00
2022-07-20T05:01:00,campus,2034.00
2022-07-20T05:02:00,campus,2040.00
2022-07-20T05:03:00,campus,2046.00
2022-07-20T05:04:00,campus,2052.00
2022-07-20T05:05:00,campus,2058.00
2022-07-20T05:06:00,campus,2064.00
2022-07-20T05:07:00,campus,2070.00
2022-07-20T05:08:00,campus,2076.00
2022-07-20T05:09:00,campus,2082.00
2022-07-20T05:10:00,campus,2082.00
2022-07-20T05:11:00,campus,2088.00
2022-07-20T05:12:00,campus,2088.00
2022-07-20T05:13:00,campus,2094.00
2022-07-20T05:14:00,campus,2094.00
2022-07-20T05:15:00,campus,2100.00
2022-07-20T05:16:00,campus,2100.00
2022-07-20T05:17:00,campus,2106.00
2022-07-20T05:18:00,campus,2112.00
2022-07-20T05:19:00,campus,2112.00
2022-07-20T05:20:00,campus,2118.00
2022-07-20T05:21:00,campus,2124.00
2022-07-20T05:22:00,campus,2124.00
2022-07-20T05:23:00,campus,2130.00
2022-07-20T05:24:00,campus,2130.00
2022-07-20T05:25:00,campus,2136.00
2022-07-20T05:26:00,campus,2142.00
2022-07-20T05:27:00,campus,2148.00
2022-07-20T05:28:00,campus,2154.00
2022-07-20T05:29:00,campus,2160.00
2022-07-20T05:30:00,campus,2160.00
2022-07-20T05:31:00,campus,2166.00
2022-07-20T05:32:00,campus,2172.00
2022-07-20T05:33:00,campus,2172.00
2022-07-20T05:34:00,campus,2178.00
2022-07-20T05:35:00,campus,2184.00
2022-07-20T05:36:00,campus,2190.00
2022-07-20T05:37:00,campus,2190.00
2022-07-20T05:38:00,campus,2196.00
2022-07-20T05:39:00,campus,2196.00
2022-07-20T05:40:00,campus,2202.00
2022-07-20T05:41:00,campus,2208.00
2022-07-20T05:42:00,campus,2208.00
2022-07-20T05:43:00,campus,2208.00
2022-07-20T05:44:00,campus,2208.00
2022-07-20T05:45:00,campus,2214.00
2022-07-20T05:46:00,campus,2214.00
2022-07-20T05:47:00,campus,2214.00
2022-07-20T05:48:00,campus,2214.00
2022-07-20T05:49:00,campus,2220.00
2022-07-20T05:50:00,campus,2220.00
2022-07-20T05:51:00,campus,2220.00
2022-07-20T05:52:00,campus,2220.00
2022-07-20T05:53:00,campus,2214.00
2022-07-20T05:54:00,campus,2214.00
2022-07-20T05:55:00,campus,2214.00
2022-07-20T05:56:00,campus,2214.00
2022-07-20T05:57:00,campus,2214.00
2022-07-20T05:58:00,campus,2208.00
2022-07-20T05:59:00,campus,2208.00
2022-07-20T06:00:00,campus,2208.00
2022-07-20T06:01:00,campus,2214.00
2022-07-20T06:02:00,campus,2214.00
2022-07-20T06:03:00,campus,2214.00
2022-07-20T06:04:00,campus,2214.00
2022-07-20T06:05:00,campus,2220.00
2022-07-20T06:06:00,campus,2226.00
2022-07-20T06:07:00,campus,2232.00
2022-07-20T06:08:00,campus,2238.00
2022-07-20T06:09:00,campus,2244.00
2022-07-20T06:10:00,campus,2244.00
2022-07-20T06:11:00,campus,2250.00
2022-07-20T06:12:00,campus,2262.00
2022-07-20T06:13:00,campus,2268.00
2022-07-20T06:14:00,campus,2274.00
2022-07-20T06:15:00,campus,2286.00
2022-07-20T06:16:00,campus,2292.00
2022-07-20T06:17:00,campus,2298.00
2022-07-20T06:18:00,campus,2310.00
2022-07-20T06:19:00,campus,2316.00
2022-07-20T06:20:00,campus,2322.00
2022-07-20T06:21:00,campus,2334.00
2022-07-20T06:22:00,campus,2346.00
2022-07-20T06:23:00,campus,2358.00
2022-07-20T06:24:00,campus,2370.00
2022-07-20T06:25:00,campus,2382.00
2022-07-20T06:26:00,campus,2388.00
2022-07-20T06:27:00,campus,2394.00
2022-07-20T06:28:00,campus,2400.00
2022-07-20T06:29:00,campus,2406.00
2022-07-20T06:30:00,campus,2412.00
2022-07-20T06:31:00,campus,2418.00
2022-07-20T06:32:00,campus,2424.00
2022-07-20T06:33:00,campus,2430.00
2022-07-20T06:34:00,campus,2436.00
2022-07-20T06:35:00,campus,2436.00
2022-07-20T06:36:00,campus,2436.00
2022-07-20T06:37:00,campus,2436.00
2022-07-20T06:38:00,campus,2436.00
2022-07-20T06:39:00,campus,2442.00
2022-07-20T06:40:00,campus,2448.00
2022-07-20T06:41:00,campus,2454.00
2022-07-20T06:42:00,campus,2460.00
2022-07-20T06:43:00,campus,2466.00
2022-07-20T06:44:00,campus,2472.00
2022-07-20T06:45:00,campus,2478.00
2022-07-20T06:46:00,campus,2490.00
2022-07-20T06:47:00,campus,2496.00
2022-07-20T06:48:00,campus,2502.00
2022-07-20T06:49:00,campus,2508.00
2022-07-20T06:50:00,campus,2514.00
2022-07-20T06:51:00,campus,2514.00
2022-07-20T06:52:00,campus,2520.00
2022-07-20T06:53:00,campus,2526.00
2022-07-20T06:54:00,campus,2532.00
2022-07-20T06:55:00,campus,2538.00
2022-07-20T06:56:00,campus,2550.00
2022-07-20T06:57:00,campus,2562.00
2022-07-20T06:58:00,campus,2568.00
2022-07-20T06:59:00,campus,2580.00
2022-07-20T07:00:00,campus,2592.00
2022-07-20T07:01:00,campus,2598.00
2022-07-20T07:02:00,campus,2610.00
2022-07-20T07:03:00,campus,2616.00
2022-07-20T07:04:00,campus,2628.00
2022-07-20T07:05:00,campus,2646.00
2022-07-20T07:06:00,campus,2664.00
2022-07-20T07:07:00,campus,2676.00
2022-07-20T07:08:00,campus,2694.00
2022-07-20T07:09:00,campus,2700.00
2022-07-20T07:10:00,campus,2712.00
2022-07-20T07:11:00,campus,2724.00
2022-07-20T07:12:00,campus,2736.00
2022-07-20T07:13:00,campus,2748.00
2022-07-20T07:14:00,campus,2766.00
2022-07-20T07:15:00,campus,2778.00
2022-07-20T07:16:00,campus,2790.00
2022-07-20T07:17:00,campus,2802.00
2022-07-20T07:18:00,campus,2814.00
2022-07-20T07:19:00,campus,2826.00
2022-07-20T07:20:00,campus,2838.00
2022-07-20T07:21:00,campus,2850.00
2022-07-20T07:22:00,campus,2862.00
2022-07-20T07:23:00,campus,2874.00
2022-07-20T07:24:00,campus,2880.00
2022-07-20T07:25:00,campus,2892.00
2022-07-20T07:26:00,campus,2898.00
2022-07-20T07:27:00,campus,2910.00
2022-07-20T07:28:00,campus,2916.00
2022-07-20T07:29:00,campus,2928.00
2022-07-20T07:30:00,campus,2940.00
2022-07-20T07:31:00,campus,2952.00
2022-07-20T07:32:00,campus,2964.00
2022-07-20T07:33:00,campus,2970.00
2022-07-20T07:34:00,campus,2976.00
2022-07-20T07:35:00,campus,2982.00
2022-07-20T07:36:00,campus,2988.00
2022-07-20T07:37:00,campus,2994.00
2022-07-20T07:38:00,campus,3000.00
2022-07-20T07:39:00,campus,3000.00
2022-07-20T07:40:00,campus,3006.00
2022-07-20T07:41:00,campus,3012.00
2022-07-20T07:42:00,campus,3012.00
2022-07-20T07:43:00,campus,3012.00
2022-07-20T07:44:00,campus,3012.00
2022-07-20T07:45:00,campus,3018.00
2022-07-20T07:46:00,campus,3012.00
2022-07-20T07:47:00,campus,3012.00
2022-07-20T07:48:00,campus,3012.00
2022-07-20T07:49:00,campus,3012.00
2022-07-20T07:50:00,campus,3012.00
2022-07-20T07:51:00,campus,3012.00
2022-07-20T07:52:00,campus,3012.00
2022-07-20T07:53:00,campus,3018.00
2022-07-20T07:54:00,campus,3018.00
2022-07-20T07:55:00,campus,3024.00
2022-07-20T07:56:00,campus,3030.00
2022-07-20T07:57:00,campus,3030.00
2022-07-20T07:58:00,campus,3036.00
2022-07-20T07:59:00,campus,3036.00
2022-07-20T08:00:00,campus,3042.00
2022-07-20T08:01:00,campus,3048.00
2022-07-20T08:02:00,campus,3048.00
2022-07-20T08:03:00,campus,3054.00
2022-07-20T08:04:00,campus,3060.00
2022-07-20T08:05:00,campus,3060.00
2022-07-20T08:06:00,campus,3066.00
2022-07-20T08:07:00,campus,3072.00
2022-07-20T08:08:00,campus,3072.00
2022-07-20T08:09:00,campus,3084.00
2022-07-20T08:10:00,campus,3084.00
2022-07-20T08:11:00,campus,3090.00
2022-07-20T08:12:00,campus,3096.00
2022-07-20T08:13:00,campus,3102.00
2022-07-20T08:14:00,campus,3108.00
2022-07-20T08:15:00,campus,3114.00
2022-07-20T08:16:00,campus,3120.00
2022-07-20T08:17:00,campus,3126.00
2022-07-20T08:18:00,campus,3132.00
2022-07-20T08:19:00,campus,3138.00
2022-07-20T08:20:00,campus,3150.00
2022-07-20T08:21:00,campus,3156.00
2022-07-20T08:22:00,campus,3168.00
2022-07-20T08:23:00,campus,3174.00
2022-07-20T08:24:00,campus,3180.00
2022-07-20T08:25:00,campus,3186.00
2022-07-20T08:26:00,campus,3192.00
2022-07-20T08:27:00,campus,3198.00
2022-07-20T08:28:00,campus,3204.00
2022-07-20T08:29:00,campus,3210.00
2022-07-20T08:30:00,campus,3216.00
2022-07-20T08:31:00,campus,3216.00
2022-07-20T08:32:00,campus,3222.00
2022-07-20T08:33:00,campus,3228.00
2022-07-20T08:34:00,campus,3234.00
2022-07-20T08:35:00,campus,3240.00
2022-07-20T08:36:00,campus,3240.00
2022-07-20T08:37:00,campus,3246.00
2022-07-20T08:38:00,campus,3252.00
2022-07-20T08:39:00,campus,3258.00
2022-07-20T08:40:00,campus,3258.00
2022-07-20T08:41:00,campus,3264.00
2022-07-20T08:42:00,campus,3264.00
2022-07-20T08:43:00,campus,3270.00
2022-07-20T08:44:00,campus,3270.00
2022-07-20T08:45:00,campus,3276.00
2022-07-20T08:46:00,campus,3276.00
2022-07-20T08:47:00,campus,3276.00
2022-07-20T08:48:00,campus,3276.00
2022-07-20T08:49:00,campus,3282.00
2022-07-20T08:50:00,campus,3282.00
2022-07-20T08:51:00,campus,3282.00
2022-07-20T08:52:00,campus,3288.00
2022-07-20T08:53:00,campus,3288.00
2022-07-20T08:54:00,campus,3288.00
2022-07-20T08:55:00,campus,3294.00
2022-07-20T08:56:00,campus,3294.00
2022-07-20T08:57:00,campus,3294.00
2022-07-20T08:58:00,campus,3300.00
2022-07-20T08:59:00,campus,3306.00
2022-07-20T11:19:00,campus,3804.00
2022-07-20T11:20:00,campus,3696.00
2022-07-20T11:21:00,campus,3672.00
2022-07-20T11:22:00,campus,3660.00
2022-07-20T11:23:00,campus,3648.00
2022-07-20T11:24:00,campus,3672.00
2022-07-20T11:25:00,campus,3696.00
2022-07-20T11:26:00,campus,3708.00
2022-07-20T11:27:00,campus,3726.00
2022-07-20T11:28:00,campus,3732.00
2022-07-20T11:29:00,campus,3744.00
2022-07-20T11:30:00,campus,3750.00
2022-07-20T11:31:00,campus,3756.00
2022-07-20T11:32:00,campus,3756.00
2022-07-20T11:33:00,campus,3756.00
2022-07-20T11:34:00,campus,3762.00
2022-07-20T11:35:00,campus,3756.00
2022-07-20T11:36:00,campus,3756.00
2022-07-20T11:37:00,campus,3756.00
2022-07-20T11:38:00,campus,3750.00
2022-07-20T11:39:00,campus,3750.00
2022-07-20T11:40:00,campus,3744.00
2022-07-20T11:41:00,campus,3744.00
2022-07-20T11:42:00,campus,3738.00
2022-07-20T11:43:00,campus,3738.00
2022-07-20T11:44:00,campus,3738.00
2022-07-20T11:45:00,campus,3738.00
2022-07-20T11:46:00,campus,3738.00
2022-07-20T11:47:00,campus,3732.00
2022-07-20T11:48:00,campus,3732.00
2022-07-20T11:49:00,campus,3726.00
2022-07-20T11:50:00,campus,3732.00
2022-07-20T11:51:00,campus,3732.00
2022-07-20T11:52:00,campus,3738.00
2022-07-20T11:53:00,campus,3738.00
2022-07-20T11:54:00,campus,3738.00
2022-07-20T11:55:00,campus,3732.00
2022-07-20T11:56:00,campus,3732.00
2022-07-20T11:57:00,campus,3726.00
2022-07-20T11:58:00,campus,3726.00
2022-07-20T11:59:00,campus,3720.00
2022-07-20T12:00:00,campus,3714.00
2022-07-20T12:01:00,campus,3708.00
2022-07-20T12:02:00,campus,3708.00
2022-07-20T12:03:00,campus,3708.00
2022-07-20T12:04:00,campus,3702.00
2022-07-20T12:05:00,campus,3702.00
2022-07-20T12:06:00,campus,3696.00
2022-07-20T12:07:00,campus,3696.00
2022-07-20T12:08:00,campus,3696.00
2022-07-20T12:09:00,campus,3696.00
2022-07-20T12:10:00,campus,3696.00
2022-07-20T12:11:00,campus,3696.00
2022-07-20T12:12:00,campus,3702.00
2022-07-20T12:13:00,campus,3702.00
2022-07-20T12:14:00,campus,3708.00
2022-07-20T12:15:00,campus,3708.00
2022-07-20T12:16:00,campus,3708.00
2022-07-20T12:17:00,campus,3708.00
2022-07-20T12:18:00,campus,3708.00
2022-07-20T12:19:00,campus,3708.00
2022-07-20T12:20:00,campus,3708.00
2022-07-20T12:21:00,campus,3714.00
2022-07-20T12:22:00,campus,3714.00
2022-07-20T12:23:00,campus,3714.00
2022-07-20T12:24:00,campus,3714.00
2022-07-20T12:25:00,campus,3714.00
2022-07-20T12:26:00,campus,3714.00
2022-07-20T12:27:00,campus,3714.00
2022-07-20T12:28:00,campus,3714.00
2022-07-20T12:29:00,campus,3714.00
2022-07-20T12:30:00,campus,3714.00
2022-07-20T12:31:00,campus,3714.00
2022-07-20T12:32:00,campus,3714.00
2022-07-20T12:33:00,campus,3720.00
2022-07-20T12:34:00,campus,3720.00
2022-07-20T12:35:00,campus,3726.00
2022-07-20T12:36:00,campus,3726.00
2022-07-20T12:37:00,campus,3726.00
2022-07-20T12:38:00,campus,3726.00
2022-07-20T12:39:00,campus,3726.00
2022-07-20T12:40:00,campus,3726.00
2022-07-20T12:41:00,campus,3726.00
2022-07-20T12:42:00,campus,3720.00
2022-07-20T12:43:00,campus,3720.00
2022-07-20T12:44:00,campus,3720.00
2022-07-20T12:45:00,campus,3720.00
2022-07-20T12:46:00,campus,3714.00
2022-07-20T12:47:00,campus,3714.00
2022-07-20T12:48:00,campus,3714.00
2022-07-20T12:49:00,campus,3714.00
2022-07-20T12:50:00,campus,3708.00
2022-07-20T12:51:00,campus,3708.00
2022-07-20T12:52:00,campus,3708.00
2022-07-20T12:53:00,campus,3702.00
2022-07-20T12:54:00,campus,3702.00
2022-07-20T12:55:00,campus,3696.00
2022-07-20T12:56:00,campus,3696.00
2022-07-20T12:57:00,campus,3696.00
2022-07-20T12:58:00,campus,3696.00
2022-07-20T12:59:00,campus,3696.00
2022-07-20T13:00:00,campus,3690.00
2022-07-20T13:01:00,campus,3690.00
2022-07-20T13:02:00,campus,3690.00
2022-07-20T13:03:00,campus,3690.00
2022-07-20T13:04:00,campus,3690.00
2022-07-20T13:05:00,campus,3690.00
2022-07-20T13:06:00,campus,3684.00
2022-07-20T13:07:00,campus,3684.00
2022-07-20T13:08:00,campus,3684.00
2022-07-20T13:09:00,campus,3684.00
2022-07-20T13:10:00,campus,3684.00
2022-07-20T13:11:00,campus,3678.00
2022-07-20T13:12:00,campus,3684.00
2022-07-20T13:13:00,campus,3678.00
2022-07-20T13:14:00,campus,3684.00
2022-07-20T13:15:00,campus,3684.00
2022-07-20T13:16:00,campus,3684.00
2022-07-20T13:17:00,campus,3684.00
2022-07-20T13:18:00,campus,3684.00
2022-07-20T13:19:00,campus,3684.00
2022-07-20T13:20:00,campus,3684.00
2022-07-20T13:21:00,campus,3684.00
2022-07-20T13:22:00,campus,3684.00
2022-07-20T13:23:00,campus,3690.00
2022-07-20T13:24:00,campus,3690.00
2022-07-20T13:25:00,campus,3696.00
2022-07-20T13:26:00,campus,3696.00
2022-07-20T13:27:00,campus,3696.00
2022-07-20T13:28:00,campus,3696.00
2022-07-20T13:29:00,campus,3696.00
2022-07-20T13:30:00,campus,3696.00
2022-07-20T13:31:00,campus,3696.00
2022-07-20T13:32:00,campus,3696.00
2022-07-20T13:33:00,campus,3696.00
2022-07-20T13:34:00,campus,3696.00
2022-07-20T13:35:00,campus,3696.00
2022-07-20T13:36:00,campus,3696.00
2022-07-20T13:37:00,campus,3696.00
2022-07-20T13:38:00,campus,3702.00
2022-07-20T13:39:00,campus,3702.00
2022-07-20T13:40:00,campus,3708.00
2022-07-20T13:41:00,campus,3708.00
2022-07-20T13:42:00,campus,3708.00
2022-07-20T13:43:00,campus,3714.00